Regional Weather Roundup
Issued by NWS

Home | Current Version | Previous Version | Graphics & Text | Print | Product List | Glossary On
Versions: 1 2 3 4 5 6 7 8 9 10 11 12 13 14 15 16 17 18 19 20 21 22 23 24 25 26 27 28 29 30 31 32 33 34 35 36 37 38 39 40 41 42 43 44 45 46 47 48 49 50
000
ASUS43 KBIS 282102
RWRND

NORTH DAKOTA REGIONAL WEATHER ROUNDUP
NATIONAL WEATHER SERVICE BISMARCK ND
400 PM CDT THU MAY 28 2015

NOTE: "FAIR" INDICATES FEW OR NO CLOUDS BELOW 12,000 FEET WITH NO
SIGNIFICANT WEATHER AND/OR OBSTRUCTIONS TO VISIBILITY.


NDZ001>003-009>011-017-282200-
NORTHWEST NORTH DAKOTA

CITY           SKY/WX    TMP DP  RH WIND       PRES   REMARKS
WILLISTON      PTSUNNY   74  52  46 N14       29.88F
MINOT          PTSUNNY   71  57  61 N14G20    29.85F
MINOT AFB      MOSUNNY   71  69  94 N10       29.85S
$$

NDZ018>021-031>035-040>046-282200-
SOUTHWEST NORTH DAKOTA

CITY           SKY/WX    TMP DP  RH WIND       PRES   REMARKS
BISMARCK       MOSUNNY   80  54  40 NW8       29.84F
DICKINSON      PTSUNNY   73  50  44 NW10      29.86F
GARRISON         N/A     75  56  51 NW10      29.85F
HETTINGER ARPT CLOUDY    74  51  44 NE7       29.90F
$$

NDZ004>008-012>016-024-026-027-054-282200-
NORTHEAST NORTH DAKOTA

CITY           SKY/WX    TMP DP  RH WIND       PRES   REMARKS
GRAND FORKS    TSTM      73  66  78 W3        29.76F
GRND FRKS AFB  PTSUNNY   77  62  60 SW10      29.77F
DEVILS LAKE    PTSUNNY   75  59  57 W10G17    29.81R
$$

NDZ022-023-025-028>030-036>039-047>053-282200-
SOUTHEAST NORTH DAKOTA

CITY           SKY/WX    TMP DP  RH WIND       PRES   REMARKS
FARGO          FAIR      82  58  43 SW23G31   29.79F
JAMESTOWN      PTSUNNY   74  62  66 S14       29.81F
$$



USA.gov is the U.S. government's official web portal to all federal, state and local government web resources and services.